Starlink 31437

operational
NORAD ID: 60057 Int'l Des: 2024-112 Owner: SPXS Country: US Constellation: starlink
LEOCIRCULAR

Über Starlink 31437

Beschreibung wird geladen...

Live-Position

3D-Globus wird geladen...

Nächste Überflüge

Höhenverlauf

Altitude vs Time

uPlot chart will show altitude changes over time

Zweizeiliger Elementsatz

1 60057U 24112V 25353.29304883 .00002018 00000-0 80268-4 0 9992
2 60057 53.1607 91.7068 0001138 83.0668 277.0462 15.30188304 86282
Epoch: 19. Dez. 2025 • Age: 10 hours

Aktueller Status

Höhe 475.3 km
Geschwindigkeit 7.63 km/s
Subsatellitenpunkt 10.37°N, 84.12°W
Startdatum 8. Juni 2024
Alter 1.5 years
Typ internet

Technische Details

Klassifizierung Payload
Masse 730.00 kg
Trockenmasse 700.00 kg
Gesamtmasse 730.00 kg
Länge 0.30 m
Durchmesser 4.10 m
Spannweite 29.00 m
Form Box + pan
Hersteller SPXS
Bus-Typ Starlink V2M
Phasenstatus In Orbit
Besitzer/Staat SPXS/US

Große Konstellationen

Loading constellations...